INFORMACIÓN METAR y TAF
METAR FOR SCVM
ADDS - METARS form results

(2240 UTC 14 November 2019)
Data provider http://aviationweather.gov/metar/data/
 
METAR text: SCVM 142200Z 20012KT CAVOK 25/11 Q1014
Conditions at: SCVM (VINA DEL MAR , CL) observed 2200 UTC 14 November 2019
Temperature: 25.0°C (77°F)
Dewpoint: 11.0°C (52°F) [RH = 41%]
Pressure (altimeter): 29.94 inches Hg (1014.0 mb)
Winds: from the SSW (200 degrees) at 14 MPH (12 knots; 6.2 m/s)
Visibility: 6 or more miles (10+ km)
Ceiling: ceiling and visibility are OK
Clouds: unknown
Weather: no significant weather observed at this time

 MAPA DE AEROPUERTO

 INFORMACIÓN DE PISTA
Pista 05 Longitud 5760 ft Ancho 98 ft
Elevación 461 ft Umbral desplazado 0 ft Rumbo de pista 52
Pista 23 Longitud 5760 ft Ancho 98 ft
Elevación 428 ft Umbral desplazado 0 ft Rumbo de pista 232

 FRECUANCIAS DEL AEROPUERTO
Tipo APP Nombre SANTIAGO A Frecuencia 128.1 MHZ
Tipo GND Nombre GND Frecuencia 121.85 MHZ
Tipo TWR Nombre TWR Frecuencia 118.4 MHZ

 RADIO AYUDAS DEL AEROPUERTO
Tipo NDB Nombre Salinas Frecuencia 390 KHZ